Wind_Speed
34 37 39 42 43 44 45 45 45 45 45 46 46 46 46 46 46 46 45 44 43 40 37 35 34 33 33 32 31 32 32 32 31 30 29 28 27 27 26 24 21 20 20 20 19 18 16 16 15 15 14 14 14 13 13 12 11 11 12 13 12 10 9
31 36 38 41 43 44 45 46 45 46 46 46 47 47 47 47 47 47 46 45 44 42 39 36 35 33 33 32 31 31 32 33 32 31 30 29 28 28 27 25 23 21 20 20 19 18 17 17 17 15 15 14 14 13 13 13 12 11 12 13 13 12 11
33 36 38 41 43 45 46 46 46 47 46 47 47 47 48 48 48 47 46 46 45 43 41 38 36 34 33 32 32 31 32 32 33 32 31 30 29 28 27 26 25 23 21 21 20 19 19 18 18 16 16 15 14 14 14 13 13 12 12 12 12 12 12
32 36 37 40 41 42 44 45 47 47 47 48 48 48 49 49 48 47 46 46 45 44 43 40 38 36 34 33 33 32 32 32 33 33 32 30 29 29 28 27 26 25 24 22 22 21 20 20 19 18 17 16 15 15 15 14 14 13 13 13 13 12 12
24 34 35 38 40 41 43 45 46 48 48 48 48 48 49 48 48 47 47 46 45 44 43 40 38 37 36 35 33 32 32 32 33 33 32 32 30 30 29 28 27 26 26 24 23 22 22 21 21 20 19 18 17 17 16 15 14 14 13 13 13 12 11
18 30 36 38 40 42 44 45 46 47 47 47 47 47 48 48 48 48 47 47 46 45 44 42 40 38 37 36 35 34 33 32 32 32 32 32 32 32 31 29 27 27 26 25 24 23 22 22 22 22 21 19 19 18 17 16 15 15 14 14 14 13 12
15 27 36 38 41 42 43 44 45 45 45 46 46 46 46 47 48 49 48 48 47 46 45 44 43 41 39 37 36 35 34 33 32 32 32 32 33 33 33 31 29 27 26 26 26 24 23 23 23 23 22 20 20 19 18 17 16 16 16 15 15 14 13
16 16 31 35 36 37 38 40 41 42 42 43 44 44 45 47 47 48 49 48 48 47 47 46 44 43 41 39 38 36 35 34 33 32 32 32 33 34 34 33 32 29 28 27 27 25 24 23 24 24 23 22 21 20 19 18 17 17 17 16 16 15 15
28 9 12 24 28 28 30 33 35 36 38 40 42 43 44 46 47 48 49 48 48 48 47 46 45 43 42 40 39 37 35 34 33 33 33 33 33 35 36 35 34 32 30 29 28 27 25 23 23 24 24 23 22 21 20 18 17 17 17 16 16 16 16
36 28 13 4 14 20 23 27 30 32 35 37 39 41 43 44 46 47 48 48 48 48 47 46 45 44 43 42 40 38 37 36 35 34 34 34 34 34 36 36 36 35 33 31 30 29 27 25 24 24 24 24 24 23 21 20 19 18 17 16 16 16 17
38 36 29 19 9 10 15 20 26 29 33 35 36 38 39 41 43 44 46 47 47 48 47 46 46 45 44 43 42 40 39 38 37 36 35 34 34 34 35 36 37 37 35 34 33 31 29 28 27 26 26 26 25 24 23 22 21 20 19 18 17 17 18
39 40 36 30 22 13 9 14 19 24 29 33 35 36 36 38 40 41 43 44 45 46 46 46 45 45 45 44 43 42 41 40 39 38 36 35 34 34 34 35 37 37 37 36 35 33 32 31 30 29 29 28 27 26 26 24 23 23 22 21 20 19 19
37 41 40 35 31 23 16 10 11 16 22 27 32 34 36 37 39 39 41 42 44 44 45 45 45 45 45 44 44 43 42 41 40 39 37 35 34 33 33 34 36 37 38 38 37 36 35 33 33 32 31 31 30 29 29 28 27 26 25 24 23 22 22
39 41 40 38 36 31 26 19 11 9 13 19 24 29 32 34 37 38 40 42 43 43 44 44 44 44 44 44 44 44 43 42 41 39 37 36 34 33 33 33 34 36 38 39 39 39 38 36 35 34 33 33 32 32 32 31 31 30 28 27 26 25 25
39 40 39 38 36 34 32 27 20 12 8 10 16 21 25 28 31 34 37 40 41 42 43 43 43 44 44 44 44 44 43 41 41 40 38 37 36 35 33 33 33 34 36 38 39 40 40 39 38 37 36 35 34 34 34 34 34 33 32 30 29 29 28
34 36 36 36 35 34 33 31 26 19 12 7 8 13 18 21 25 29 34 37 39 40 42 42 43 43 43 44 44 43 42 42 41 40 40 39 38 37 35 34 33 33 34 36 38 39 40 40 40 40 40 39 37 37 37 37 36 35 34 33 32 32 31
32 32 31 33 33 32 32 32 29 24 17 11 7 5 9 15 21 25 29 33 37 40 40 41 42 43 43 44 43 42 42 42 41 41 41 40 39 38 37 36 35 34 33 34 35 36 38 39 40 41 41 41 40 39 39 39 37 36 35 34 33 33 33
30 30 28 28 30 30 30 31 30 28 23 17 11 6 2 8 15 21 26 29 33 37 39 41 42 42 43 43 42 42 42 41 41 41 41 40 40 39 38 37 36 36 35 34 33 33 35 37 38 40 40 41 41 41 41 40 39 38 37 36 35 34 34
27 29 26 25 26 27 27 28 29 29 27 22 16 12 7 0 7 15 23 28 31 34 37 40 41 42 42 42 41 41 41 41 41 42 42 41 40 39 39 39 38 37 36 35 34 34 34 34 35 36 37 39 40 41 41 40 39 38 38 37 36 35 35
27 28 27 25 24 24 24 24 25 26 27 25 21 17 12 6 2 9 17 24 29 33 36 39 41 42 42 41 42 42 41 39 37 37 39 41 41 41 40 39 38 37 36 35 35 35 34 33 33 34 34 35 37 38 39 39 39 38 38 37 36 35 35
27 27 27 27 26 25 24 23 23 23 24 25 23 22 17 10 5 4 10 17 22 27 33 36 38 41 42 41 41 42 42 41 36 31 31 33 38 41 41 39 38 37 36 36 36 35 34 33 33 33 32 33 34 35 37 38 38 38 37 37 35 35 35
26 25 25 26 27 27 26 24 23 23 23 22 21 22 22 16 10 7 7 8 12 18 26 33 34 36 39 42 42 42 42 42 39 35 32 31 33 38 39 39 37 36 35 35 35 35 35 34 34 33 32 32 32 33 35 36 36 36 36 36 35 34 34
23 23 23 23 25 26 25 24 23 22 22 22 19 18 21 20 14 11 12 9 5 11 19 28 31 31 33 37 42 43 42 40 40 40 38 36 35 35 36 37 36 35 34 35 35 34 35 35 34 33 33 32 32 32 32 33 34 34 34 34 33 33 33
22 22 22 22 24 26 25 23 22 22 22 22 20 16 18 21 17 14 15 12 2 10 15 19 23 26 27 29 34 39 41 40 39 39 39 40 39 37 35 35 35 35 34 35 35 34 34 34 34 34 33 33 32 31 30 30 29 30 31 31 31 32 32
21 21 21 21 23 25 25 23 21 20 20 20 20 19 19 19 18 16 16 14 5 6 11 12 14 19 21 20 21 28 35 38 39 39 38 39 39 38 36 35 35 35 35 36 36 35 35 35 35 35 34 33 32 31 30 29 27 26 27 28 29 30 31
22 22 22 21 22 23 24 22 21 19 19 18 19 20 22 21 18 17 16 14 9 5 7 9 10 12 13 13 14 19 26 31 34 36 36 35 36 36 36 35 35 36 37 38 37 37 37 37 37 36 35 34 33 32 31 30 28 26 25 25 26 28 30
22 22 22 22 21 22 23 22 21 20 19 17 17 19 21 22 20 17 16 15 12 9 6 8 11 11 11 13 14 16 18 23 28 30 31 31 31 33 35 36 37 38 38 39 39 39 38 38 38 37 36 35 34 33 32 31 29 27 26 25 25 26 28
21 22 21 21 21 22 24 24 22 20 19 17 17 18 19 21 21 19 18 17 16 12 9 7 8 10 11 14 15 13 12 14 20 25 26 27 26 28 30 32 35 38 39 39 40 40 39 39 39 39 38 37 36 35 33 32 31 29 27 26 26 26 27
20 21 22 23 23 23 24 25 24 22 20 18 18 19 20 19 20 20 21 20 18 15 12 9 7 7 10 15 17 16 14 12 12 15 19 21 23 25 26 27 29 33 37 40 41 42 42 41 40 40 39 38 38 36 34 32 31 30 29 28 27 27 27
19 21 22 23 25 24 25 26 26 24 22 19 18 19 20 20 19 18 21 23 21 17 14 12 9 6 8 12 15 15 17 18 16 14 13 15 18 22 25 26 26 28 34 39 42 43 44 43 41 41 41 39 38 37 35 34 33 32 30 29 28 28 28
23 22 23 24 25 25 25 26 27 26 24 21 18 17 18 19 20 18 19 22 22 20 17 14 12 10 8 10 13 14 15 17 18 18 16 14 15 17 20 22 24 26 31 37 42 44 44 43 42 41 40 40 38 37 35 34 34 33 32 30 29 29 28
27 25 25 25 25 25 25 25 26 27 25 22 20 18 16 16 19 19 19 19 20 21 19 16 14 13 11 11 13 15 17 16 15 15 16 16 17 19 19 20 21 24 28 34 41 45 43 42 41 40 39 39 38 37 36 36 36 35 34 32 31 30 29
31 29 27 26 25 25 25 25 26 27 26 24 21 20 18 16 16 19 21 20 20 20 20 18 16 15 14 14 14 16 18 18 17 15 15 15 16 19 22 23 25 27 27 33 42 45 42 40 40 39 38 37 36 37 38 37 37 36 35 34 33 31 29
33 31 29 27 26 25 24 25 25 26 27 26 22 21 21 18 16 18 21 21 21 21 21 20 18 17 16 15 15 17 17 17 16 15 15 14 15 18 22 24 26 28 29 33 40 41 38 37 38 38 36 35 35 36 37 37 36 35 34 33 31 29 27
33 33 32 29 27 26 25 25 25 26 28 27 23 21 22 21 18 18 19 21 22 22 22 21 20 19 18 17 16 17 18 17 15 14 14 15 16 19 22 24 24 26 28 31 34 35 34 34 35 35 34 34 34 34 34 35 33 28 26 27 27 25 25
32 33 33 31 30 29 28 27 25 25 27 27 25 22 22 22 21 19 19 19 21 21 22 22 21 21 20 19 18 18 18 17 16 16 15 15 16 19 22 24 24 25 27 29 30 32 33 34 33 33 34 35 35 34 33 32 28 24 24 26 26 25 25
32 33 33 32 31 31 30 29 26 25 26 27 26 24 23 22 21 20 20 19 19 20 20 21 21 21 20 20 19 18 18 18 17 17 17 16 17 18 21 23 24 25 26 28 28 28 31 34 34 34 35 37 37 36 35 34 31 28 30 31 29 27 27
32 32 33 32 32 32 32 31 28 26 25 26 26 25 25 23 21 20 21 20 19 19 19 20 21 21 20 20 20 19 20 20 19 18 18 17 17 18 20 22 24 25 25 25 25 26 28 31 33 33 34 35 35 35 36 35 33 32 32 32 31 29 28
Wind_Direction
208 207 208 208 209 210 211 212 212 213 214 214 216 217 218 219 221 222 222 222 222 221 220 219 220 221 221 222 223 223 222 223 224 225 227 228 228 229 230 228 225 225 225 224 222 222 223 223 223 224 224 227 227 224 222 223 225 225 224 224 226 224 217
209 209 209 208 209 210 211 211 211 212 213 214 215 215 216 218 219 221 222 223 223 223 222 222 222 223 223 223 223 224 223 222 224 226 228 229 229 229 230 231 229 226 227 228 226 226 227 227 227 227 227 228 230 229 226 225 226 228 229 232 236 237 231
208 210 210 210 210 210 211 211 211 212 213 214 213 214 215 217 219 221 223 223 223 223 223 224 224 225 225 223 223 225 225 224 224 226 227 228 229 230 230 231 231 230 230 230 230 230 230 231 231 230 230 229 232 233 231 228 228 229 232 237 242 244 240
211 210 211 212 212 212 212 211 210 211 212 214 214 214 215 217 219 221 224 225 224 224 224 225 226 227 227 226 224 225 227 226 225 225 226 227 228 230 231 232 232 232 232 231 231 232 233 233 232 232 231 230 231 233 233 232 231 231 233 239 244 246 244
229 214 212 211 212 212 212 212 211 211 212 213 215 215 216 217 218 220 223 225 226 227 227 227 228 229 229 228 227 227 228 229 228 227 226 227 228 230 232 233 234 234 235 234 233 233 234 234 233 232 231 229 230 231 232 233 234 234 236 240 246 249 248
260 222 213 212 212 212 212 213 212 212 211 213 214 215 215 215 216 219 221 224 225 226 227 228 229 230 230 230 230 230 230 231 231 230 229 228 228 229 232 234 235 236 237 237 237 236 236 235 234 233 230 229 230 231 232 234 237 239 241 244 246 248 249
297 231 218 214 214 214 213 213 213 212 211 213 214 214 214 214 216 218 220 222 224 225 226 227 228 229 231 232 232 232 232 233 233 233 232 231 230 230 232 235 236 237 238 239 240 240 239 237 235 234 232 230 229 230 232 236 239 243 245 248 250 249 248
358 241 224 219 217 215 214 214 213 211 210 212 213 212 213 214 215 216 219 222 224 225 226 227 228 230 231 232 233 234 235 235 235 235 235 234 233 233 233 235 237 238 238 239 241 242 242 240 238 237 235 232 229 228 231 235 239 243 246 249 251 251 250
29 30 224 222 221 217 215 215 214 212 211 211 212 213 213 213 214 216 219 221 223 224 226 228 229 231 232 233 234 235 236 237 238 238 237 236 236 236 235 236 237 238 239 239 239 241 242 241 240 239 237 235 232 230 231 234 237 240 245 249 251 252 253
32 41 54 158 211 216 216 215 214 213 213 212 212 213 214 214 214 216 218 220 222 224 227 228 229 231 232 233 235 236 237 238 239 240 240 239 238 237 238 238 238 238 239 240 240 240 240 241 241 241 239 237 235 235 235 236 237 239 243 247 250 253 254
33 40 47 59 99 175 200 210 214 215 215 215 213 214 215 216 215 215 217 219 221 224 226 228 229 230 231 233 234 236 237 238 240 241 241 242 241 239 239 239 240 240 240 240 241 241 240 240 242 243 243 243 242 242 242 241 242 244 245 248 251 255 257
35 40 41 45 58 83 136 179 200 210 215 217 216 215 216 217 217 217 218 219 222 224 226 226 228 230 231 233 234 236 238 239 240 241 243 244 245 244 242 241 241 242 242 242 242 242 242 242 242 243 244 246 248 249 250 249 249 249 249 251 253 257 260
35 40 41 40 45 54 71 106 160 191 206 215 218 217 218 219 219 218 219 220 222 224 225 226 227 228 230 232 234 236 238 239 241 243 244 246 247 247 246 245 244 244 244 244 244 244 244 243 243 244 245 247 249 251 253 255 254 254 254 254 256 258 261
35 38 40 41 42 44 49 58 80 140 181 201 211 215 218 221 222 221 220 221 222 223 224 226 227 228 230 232 234 236 239 241 242 244 245 247 248 248 248 247 246 245 245 245 245 245 245 245 245 246 246 247 249 251 254 256 257 257 257 258 259 261 263
33 32 34 38 40 39 41 45 53 72 119 173 194 204 211 218 223 224 224 223 223 224 225 226 226 228 230 231 234 237 239 241 243 244 246 247 248 248 249 248 247 246 245 245 246 247 247 247 247 248 248 249 250 252 253 255 257 257 258 259 260 262 264
29 28 28 31 34 37 38 40 45 53 69 109 162 190 201 208 214 220 224 226 225 225 226 226 227 228 230 232 235 238 240 241 243 244 246 247 248 249 249 250 249 248 247 246 246 247 248 249 249 250 251 251 252 253 254 255 256 257 257 258 260 261 263
25 25 24 25 27 31 35 37 40 44 51 64 85 148 192 204 208 212 219 225 228 228 227 227 228 229 231 233 237 238 239 241 243 244 246 247 249 250 251 251 251 250 250 249 248 248 248 249 250 251 252 253 253 254 255 256 257 257 258 258 259 260 261
19 20 20 22 22 25 30 34 37 36 37 41 48 58 133 201 207 209 212 217 225 229 229 228 228 230 232 234 236 238 239 241 243 244 247 248 250 251 252 252 252 252 252 252 251 251 250 250 251 251 252 253 254 255 255 256 257 257 257 258 258 259 260
17 16 16 17 17 19 22 27 32 32 31 32 33 32 27 339 210 210 209 211 217 223 227 229 229 230 233 234 235 237 238 239 241 244 246 249 250 252 252 252 252 252 253 253 253 253 254 254 253 253 253 253 254 255 255 256 256 256 256 256 256 257 259
14 12 11 11 12 14 14 16 22 25 26 27 28 26 20 6 269 219 211 210 212 215 221 228 231 231 232 233 234 236 236 235 237 242 246 248 250 251 251 252 252 253 254 254 254 254 254 255 255 255 255 255 255 255 255 255 255 255 255 255 255 256 258
8 8 6 6 5 6 7 8 8 10 15 20 23 23 19 8 344 280 232 216 211 210 212 220 228 232 233 234 235 236 235 235 235 236 240 243 246 247 249 251 253 254 254 254 255 255 255 255 255 256 257 257 257 257 256 255 253 254 254 254 254 255 257
360 0 1 2 1 359 359 1 0 358 1 6 13 18 16 10 0 339 305 253 222 213 209 211 218 227 231 234 236 237 237 237 237 235 235 238 240 243 246 249 251 253 254 255 255 256 256 256 256 256 256 256 257 258 258 255 252 252 253 253 253 254 256
355 354 353 356 357 354 354 356 356 355 352 352 356 5 9 6 3 356 348 335 257 221 215 215 219 226 230 232 233 233 236 239 239 238 238 238 238 240 244 248 250 252 253 254 254 255 256 256 257 257 257 257 257 259 260 257 253 251 251 251 252 254 255
353 351 349 351 351 349 350 351 353 355 351 344 343 349 355 357 360 360 1 2 312 219 220 223 227 235 240 241 238 234 235 238 239 239 240 239 238 241 245 247 250 253 254 254 256 257 257 258 259 259 260 260 260 261 264 263 258 255 253 250 251 253 254
345 346 346 348 347 345 345 345 347 351 348 340 339 341 338 341 351 357 1 10 10 235 234 234 233 234 240 248 249 243 241 241 239 238 238 238 239 243 247 250 252 254 255 256 257 258 259 259 259 260 261 262 263 263 265 266 264 261 256 252 250 252 253
338 336 336 341 343 341 341 340 341 345 346 344 341 336 329 329 340 353 356 3 9 334 277 269 267 256 247 249 250 246 245 244 242 238 236 237 241 245 249 252 254 255 255 256 257 258 259 259 259 261 262 263 264 264 264 265 265 263 260 255 252 252 253
332 330 328 331 335 337 337 335 338 341 343 344 338 328 326 328 334 344 349 349 352 351 328 299 293 290 279 267 254 244 240 239 238 238 236 237 241 245 247 250 252 253 254 256 257 257 258 259 260 261 263 263 263 264 264 264 264 263 262 259 256 255 254
327 328 327 324 325 331 332 331 333 335 336 340 335 325 323 325 326 330 335 337 339 338 336 324 303 294 296 289 271 258 253 241 231 231 234 236 239 242 245 248 251 253 254 256 257 257 258 260 260 261 262 264 264 264 264 264 264 263 261 259 257 257 256
319 321 324 323 320 321 323 324 327 330 331 335 334 326 320 318 320 322 322 324 327 326 327 331 318 298 302 299 286 276 275 266 240 227 229 231 234 239 244 248 251 253 255 255 255 256 256 257 258 258 260 262 263 263 263 263 263 262 260 258 257 256 256
308 311 315 317 317 316 315 314 317 323 327 329 330 327 321 318 319 317 312 312 317 319 320 324 323 313 300 294 291 283 274 267 264 259 246 235 233 237 242 245 247 251 255 256 255 253 253 255 255 255 257 260 261 261 262 261 261 260 259 257 256 256 256
300 303 305 307 310 311 310 307 307 311 317 323 326 324 320 320 321 316 305 305 308 311 316 320 323 327 315 297 295 293 281 268 264 268 267 261 253 247 245 244 243 244 249 253 253 251 250 251 252 252 254 257 259 260 260 260 260 260 259 258 257 256 256
295 296 298 299 301 303 304 302 300 300 304 311 319 323 320 318 319 316 311 308 306 306 312 317 320 322 321 312 306 302 294 283 273 270 269 266 264 261 258 255 251 248 248 250 250 249 248 248 249 250 252 255 257 259 259 259 260 260 259 259 258 256 255
292 293 293 293 294 295 298 299 297 295 297 300 309 318 320 317 314 312 313 314 311 310 312 315 316 316 315 313 311 307 301 293 285 281 278 273 270 267 264 261 257 253 248 245 245 246 246 245 246 247 249 252 256 257 258 259 260 259 258 257 256 256 255
287 289 289 288 287 287 289 292 292 291 292 293 300 310 315 315 314 311 310 312 313 313 313 312 312 313 312 310 307 305 304 299 289 278 273 270 265 259 256 255 253 252 249 245 243 244 246 247 247 248 250 253 256 258 258 259 259 258 257 256 256 257 257
283 284 284 283 282 281 282 285 286 286 286 287 293 303 307 308 309 309 309 310 311 312 312 312 311 310 309 309 306 301 301 302 296 280 265 257 253 248 246 247 248 252 254 251 247 247 250 252 254 256 257 258 259 259 258 258 258 258 259 260 261 261 261
282 280 278 278 278 276 275 277 280 281 280 281 286 295 300 302 304 304 306 309 311 311 310 310 310 309 307 307 307 303 301 304 303 292 274 259 253 251 248 246 246 250 255 256 253 250 249 251 254 258 261 261 260 259 259 260 262 266 269 268 267 268 268
282 279 276 274 273 272 271 271 272 275 275 276 280 286 293 297 299 299 302 306 310 311 310 309 309 308 308 308 309 308 307 306 306 300 286 269 257 254 254 253 252 251 254 259 260 256 250 247 249 253 257 260 261 261 262 263 266 269 269 268 268 269 269
283 280 275 271 268 268 267 267 268 269 271 273 275 279 286 292 295 296 298 302 306 308 309 309 308 306 306 307 309 311 311 309 309 306 296 282 267 258 259 261 262 260 258 260 264 263 255 248 247 248 252 255 258 259 260 261 263 265 266 267 267 268 268
Height
1491 1492 1494 1497 1500 1502 1505 1508 1511 1514 1517 1519 1522 1525 1528 1531 1534 1537 1540 1543 1546 1549 1552 1554 1556 1558 1560 1562 1565 1567 1569 1572 1573 1575 1577 1579 1581 1583 1584 1586 1587 1589 1590 1592 1593 1594 1596 1598 1599 1600 1601 1602 1604 1605 1606 1607 1607 1608 1609 1610 1610 1611 1611
1488 1491 1492 1494 1496 1498 1501 1505 1508 1510 1513 1515 1519 1522 1525 1528 1531 1534 1537 1540 1543 1546 1549 1552 1554 1556 1559 1561 1563 1565 1567 1570 1572 1574 1576 1577 1579 1581 1583 1585 1586 1588 1589 1591 1592 1594 1595 1597 1598 1599 1600 1601 1603 1604 1605 1606 1607 1608 1608 1609 1610 1610 1611
1483 1486 1488 1490 1492 1494 1497 1501 1504 1507 1509 1512 1515 1518 1521 1524 1527 1530 1534 1538 1541 1544 1547 1550 1552 1554 1557 1559 1561 1564 1566 1568 1570 1571 1574 1575 1578 1579 1581 1583 1585 1586 1588 1589 1591 1593 1594 1596 1597 1598 1599 1600 1602 1603 1604 1605 1606 1607 1607 1608 1609 1610 1610
1481 1482 1485 1488 1490 1493 1496 1497 1500 1503 1505 1508 1510 1513 1517 1520 1524 1528 1531 1535 1538 1541 1544 1547 1550 1553 1555 1557 1559 1562 1564 1566 1568 1569 1572 1574 1576 1578 1580 1581 1583 1584 1586 1588 1589 1591 1593 1594 1595 1597 1598 1599 1601 1602 1603 1604 1605 1606 1606 1607 1608 1609 1610
1481 1481 1482 1485 1487 1490 1493 1494 1497 1499 1501 1505 1507 1511 1514 1518 1522 1525 1528 1532 1535 1538 1542 1545 1548 1550 1553 1555 1557 1560 1562 1564 1566 1568 1570 1572 1574 1576 1578 1579 1581 1582 1584 1586 1588 1589 1591 1592 1594 1595 1597 1598 1599 1601 1602 1603 1604 1604 1605 1606 1607 1607 1608
1479 1479 1479 1480 1482 1484 1487 1490 1493 1496 1499 1503 1506 1509 1512 1515 1519 1522 1525 1529 1532 1536 1539 1542 1545 1547 1550 1552 1555 1557 1559 1562 1564 1566 1568 1570 1572 1574 1575 1577 1579 1581 1582 1584 1586 1587 1589 1591 1592 1594 1595 1597 1598 1599 1600 1601 1602 1603 1604 1605 1605 1606 1607
1474 1474 1474 1476 1478 1480 1483 1487 1491 1494 1499 1502 1504 1508 1510 1513 1516 1519 1522 1525 1528 1532 1536 1539 1542 1545 1547 1550 1552 1555 1557 1559 1562 1564 1566 1568 1570 1571 1573 1575 1577 1579 1581 1582 1584 1586 1587 1589 1590 1592 1594 1595 1597 1598 1599 1600 1601 1602 1603 1603 1604 1605 1605
1471 1471 1473 1475 1478 1481 1484 1487 1490 1494 1498 1500 1503 1505 1508 1510 1513 1516 1519 1522 1526 1529 1532 1535 1539 1542 1545 1548 1550 1552 1554 1557 1559 1562 1564 1566 1568 1569 1571 1573 1575 1577 1579 1580 1582 1584 1585 1587 1589 1591 1592 1593 1595 1596 1598 1599 1600 1601 1601 1602 1603 1603 1604
1472 1471 1474 1477 1480 1483 1486 1489 1493 1496 1498 1500 1502 1504 1507 1509 1511 1513 1516 1519 1523 1526 1529 1532 1536 1539 1542 1545 1547 1550 1552 1555 1557 1559 1561 1563 1565 1567 1569 1571 1573 1575 1576 1578 1580 1582 1583 1585 1587 1589 1590 1592 1593 1595 1596 1597 1598 1599 1600 1601 1601 1602 1603
1476 1474 1474 1477 1480 1483 1486 1489 1493 1496 1498 1500 1502 1504 1506 1507 1509 1511 1514 1517 1520 1523 1526 1530 1533 1537 1540 1542 1545 1547 1550 1552 1554 1556 1558 1560 1562 1564 1566 1568 1570 1572 1574 1576 1578 1579 1581 1583 1585 1587 1588 1590 1591 1593 1594 1595 1596 1597 1598 1599 1600 1601 1601
1483 1479 1477 1478 1480 1483 1486 1489 1491 1494 1496 1499 1501 1504 1506 1508 1510 1511 1513 1515 1518 1521 1524 1527 1531 1534 1536 1539 1542 1544 1547 1549 1551 1553 1555 1557 1559 1561 1563 1565 1567 1569 1571 1573 1575 1577 1579 1581 1582 1584 1586 1587 1589 1591 1592 1593 1595 1596 1597 1597 1598 1599 1600
1489 1485 1483 1483 1482 1483 1485 1486 1489 1492 1495 1497 1500 1502 1505 1507 1510 1511 1513 1515 1517 1519 1522 1525 1528 1531 1533 1536 1539 1541 1543 1545 1548 1549 1551 1554 1556 1558 1561 1563 1564 1566 1568 1570 1572 1574 1576 1577 1579 1581 1583 1585 1586 1588 1590 1591 1592 1594 1595 1596 1597 1597 1598
1494 1490 1489 1488 1486 1485 1485 1486 1487 1490 1493 1496 1499 1501 1503 1504 1507 1509 1512 1513 1516 1518 1520 1523 1526 1528 1531 1533 1535 1538 1540 1542 1544 1546 1549 1551 1553 1555 1558 1559 1561 1563 1564 1566 1568 1570 1572 1574 1576 1578 1579 1581 1583 1585 1587 1588 1590 1591 1592 1593 1594 1595 1596
1496 1494 1492 1491 1490 1489 1488 1488 1488 1489 1491 1494 1497 1500 1502 1503 1505 1507 1509 1511 1513 1516 1518 1520 1523 1525 1528 1530 1532 1534 1536 1539 1541 1543 1546 1548 1550 1552 1554 1555 1557 1559 1561 1562 1564 1566 1568 1570 1572 1574 1576 1578 1579 1581 1583 1584 1586 1588 1589 1591 1592 1593 1594
1499 1497 1496 1495 1494 1493 1492 1492 1491 1491 1491 1493 1495 1498 1500 1502 1504 1506 1507 1509 1511 1513 1515 1517 1520 1522 1524 1526 1528 1530 1533 1536 1538 1540 1543 1545 1546 1548 1550 1551 1553 1555 1557 1558 1560 1562 1564 1566 1568 1570 1572 1574 1575 1577 1579 1580 1582 1584 1586 1588 1589 1590 1591
1503 1501 1500 1498 1498 1497 1496 1495 1494 1493 1493 1493 1494 1496 1497 1500 1502 1503 1505 1507 1509 1511 1513 1515 1517 1518 1520 1522 1524 1527 1530 1532 1534 1537 1539 1540 1542 1544 1546 1548 1550 1551 1553 1554 1556 1558 1560 1562 1564 1565 1567 1569 1571 1573 1574 1576 1577 1579 1582 1584 1585 1587 1588
1505 1504 1503 1501 1500 1499 1498 1497 1496 1495 1494 1494 1494 1495 1496 1497 1499 1500 1503 1505 1506 1508 1510 1512 1513 1515 1516 1518 1520 1523 1526 1528 1530 1533 1535 1536 1538 1540 1542 1545 1546 1548 1549 1550 1552 1554 1556 1558 1559 1561 1563 1565 1566 1568 1569 1571 1573 1575 1578 1580 1582 1583 1585
1508 1506 1505 1504 1502 1501 1500 1498 1497 1496 1496 1496 1496 1495 1495 1496 1497 1498 1500 1502 1504 1505 1506 1508 1509 1511 1512 1514 1517 1519 1522 1524 1526 1528 1530 1532 1534 1536 1538 1541 1543 1544 1546 1547 1548 1550 1552 1554 1555 1557 1559 1560 1562 1563 1564 1566 1569 1571 1573 1575 1577 1579 1581
1510 1508 1507 1506 1505 1503 1502 1501 1500 1499 1498 1497 1497 1496 1496 1496 1496 1496 1497 1498 1500 1502 1503 1504 1505 1507 1508 1510 1512 1514 1516 1518 1520 1522 1525 1527 1529 1532 1534 1536 1538 1540 1542 1543 1545 1547 1548 1550 1551 1553 1554 1556 1557 1558 1560 1562 1564 1566 1568 1570 1573 1575 1576
1512 1510 1509 1507 1506 1505 1504 1503 1502 1501 1500 1499 1498 1497 1497 1496 1496 1495 1495 1495 1496 1498 1500 1501 1501 1502 1504 1506 1507 1508 1509 1510 1512 1515 1518 1521 1524 1527 1529 1531 1533 1535 1538 1539 1541 1543 1544 1545 1547 1548 1550 1551 1552 1553 1555 1557 1559 1561 1563 1565 1568 1570 1572
1513 1512 1510 1508 1506 1506 1505 1504 1503 1502 1501 1500 1499 1498 1497 1496 1496 1495 1494 1494 1494 1495 1496 1498 1500 1501 1501 1502 1503 1504 1505 1507 1507 1509 1511 1514 1518 1521 1524 1526 1528 1531 1533 1535 1537 1538 1540 1541 1543 1544 1545 1546 1548 1549 1550 1551 1553 1556 1558 1560 1563 1565 1567
1514 1513 1511 1509 1507 1506 1505 1505 1504 1503 1502 1501 1500 1499 1497 1496 1496 1495 1495 1493 1492 1493 1494 1496 1498 1500 1501 1501 1501 1501 1503 1505 1506 1507 1508 1510 1512 1515 1518 1521 1523 1526 1528 1531 1532 1534 1536 1537 1538 1539 1541 1542 1543 1544 1545 1546 1548 1551 1553 1555 1558 1560 1562
1514 1513 1511 1510 1509 1508 1507 1505 1504 1503 1502 1501 1500 1499 1498 1497 1496 1495 1494 1493 1493 1494 1496 1497 1498 1500 1501 1501 1500 1500 1501 1502 1504 1505 1506 1508 1509 1510 1513 1516 1519 1521 1524 1526 1528 1530 1531 1532 1534 1535 1536 1538 1539 1540 1540 1541 1543 1546 1548 1550 1553 1555 1557
1514 1513 1511 1509 1508 1507 1506 1505 1503 1502 1501 1500 1499 1498 1497 1498 1497 1496 1494 1493 1494 1495 1497 1498 1498 1499 1501 1502 1501 1501 1501 1501 1501 1502 1503 1505 1506 1507 1509 1512 1515 1517 1520 1522 1523 1525 1526 1528 1529 1531 1532 1533 1534 1536 1536 1537 1539 1541 1543 1545 1548 1550 1552
1512 1512 1511 1509 1508 1506 1505 1504 1502 1502 1501 1499 1498 1497 1496 1497 1497 1497 1495 1493 1494 1495 1497 1497 1496 1495 1497 1500 1501 1501 1501 1500 1500 1499 1500 1501 1503 1505 1507 1509 1512 1514 1516 1518 1519 1521 1522 1524 1525 1526 1527 1528 1530 1531 1532 1533 1534 1536 1538 1540 1543 1545 1548
1512 1510 1509 1508 1507 1505 1504 1504 1502 1500 1499 1498 1497 1496 1495 1494 1495 1496 1495 1494 1494 1495 1496 1496 1496 1494 1495 1498 1500 1500 1499 1499 1499 1498 1498 1499 1501 1503 1505 1507 1509 1511 1513 1514 1516 1517 1519 1520 1521 1521 1522 1524 1525 1526 1527 1528 1530 1532 1534 1536 1538 1540 1543
1512 1510 1509 1507 1506 1505 1503 1503 1502 1500 1499 1498 1497 1496 1495 1493 1492 1494 1495 1494 1494 1494 1495 1495 1495 1495 1495 1497 1499 1499 1497 1496 1497 1496 1496 1496 1498 1500 1503 1505 1507 1509 1510 1511 1512 1514 1515 1516 1516 1517 1518 1519 1520 1521 1523 1524 1525 1528 1530 1532 1534 1536 1538
1512 1510 1508 1507 1506 1504 1502 1501 1501 1500 1499 1498 1497 1496 1494 1492 1491 1491 1493 1494 1494 1493 1493 1494 1494 1493 1494 1496 1498 1497 1496 1495 1494 1494 1494 1494 1495 1496 1498 1500 1504 1506 1507 1509 1509 1510 1511 1511 1512 1513 1513 1514 1516 1516 1517 1519 1521 1523 1525 1527 1529 1531 1533
1512 1510 1508 1506 1505 1504 1502 1500 1499 1499 1498 1496 1496 1495 1494 1492 1491 1490 1490 1492 1493 1492 1491 1492 1492 1492 1494 1496 1496 1494 1493 1493 1492 1492 1492 1491 1492 1493 1493 1496 1499 1502 1504 1505 1506 1506 1507 1507 1508 1508 1508 1509 1510 1511 1512 1514 1516 1518 1520 1522 1524 1526 1528
1512 1511 1508 1506 1504 1503 1502 1499 1497 1496 1496 1496 1496 1495 1493 1492 1490 1488 1488 1489 1491 1491 1490 1490 1491 1491 1493 1496 1495 1492 1491 1491 1491 1490 1490 1489 1489 1490 1491 1492 1493 1496 1499 1501 1502 1502 1502 1502 1503 1503 1503 1504 1504 1505 1507 1508 1510 1512 1514 1517 1519 1521 1523
1510 1509 1508 1506 1504 1502 1501 1498 1496 1494 1494 1495 1495 1495 1493 1491 1488 1487 1488 1489 1489 1489 1488 1488 1488 1488 1489 1491 1491 1490 1489 1489 1489 1488 1487 1486 1487 1488 1488 1490 1490 1491 1494 1497 1498 1498 1498 1498 1498 1498 1498 1499 1499 1499 1501 1503 1505 1507 1509 1511 1514 1516 1518
1507 1507 1506 1505 1503 1501 1499 1497 1495 1493 1492 1493 1493 1493 1491 1489 1488 1487 1487 1488 1488 1488 1487 1486 1485 1485 1485 1485 1485 1485 1485 1485 1485 1484 1483 1482 1482 1482 1484 1486 1487 1488 1491 1493 1495 1495 1493 1493 1493 1493 1493 1493 1493 1494 1495 1498 1500 1502 1504 1506 1508 1510 1512
1503 1503 1503 1503 1501 1500 1498 1495 1494 1492 1490 1490 1490 1490 1489 1487 1486 1485 1485 1485 1485 1485 1484 1483 1483 1482 1482 1481 1480 1480 1480 1479 1479 1478 1477 1476 1476 1476 1479 1482 1484 1487 1490 1491 1492 1491 1489 1487 1487 1487 1487 1487 1487 1488 1491 1493 1495 1496 1498 1500 1502 1504 1507
1499 1499 1500 1499 1499 1498 1497 1495 1492 1490 1489 1488 1487 1487 1486 1484 1484 1484 1482 1482 1482 1481 1480 1480 1479 1479 1478 1477 1476 1476 1476 1476 1474 1474 1474 1473 1474 1475 1478 1481 1484 1486 1486 1486 1486 1485 1483 1482 1482 1482 1482 1482 1483 1484 1486 1488 1488 1489 1491 1494 1497 1499 1502
1496 1495 1495 1496 1496 1495 1495 1493 1491 1489 1487 1486 1485 1485 1483 1482 1482 1482 1481 1479 1479 1478 1477 1476 1476 1475 1474 1473 1472 1473 1473 1473 1472 1471 1471 1472 1473 1475 1477 1479 1481 1481 1481 1480 1480 1479 1478 1477 1476 1476 1477 1477 1478 1480 1481 1481 1482 1484 1487 1490 1493 1495 1497
1494 1492 1491 1492 1492 1492 1491 1491 1490 1488 1486 1484 1484 1483 1482 1481 1480 1480 1479 1478 1477 1476 1474 1473 1473 1472 1471 1469 1469 1469 1469 1469 1468 1468 1468 1469 1470 1471 1473 1474 1475 1475 1474 1473 1473 1472 1472 1472 1471 1471 1472 1473 1473 1475 1476 1476 1478 1482 1485 1487 1489 1491 1493
1491 1489 1488 1488 1488 1487 1487 1487 1487 1486 1484 1483 1482 1481 1480 1479 1478 1477 1476 1476 1474 1473 1472 1471 1469 1468 1467 1466 1465 1464 1464 1464 1464 1464 1464 1465 1466 1466 1467 1467 1468 1468 1467 1466 1466 1466 1466 1466 1466 1467 1468 1468 1469 1470 1472 1473 1475 1479 1482 1483 1486 1488 1489
1487 1485 1484 1484 1483 1482 1482 1483 1483 1484 1483 1482 1480 1479 1477 1476 1475 1474 1473 1473 1472 1471 1469 1468 1466 1465 1464 1464 1462 1461 1460 1460 1460 1460 1460 1460 1461 1461 1461 1461 1460 1460 1461 1461 1460 1460 1460 1460 1461 1461 1462 1463 1464 1466 1467 1468 1471 1475 1477 1479 1481 1483 1485